Location: Misciano
(43.5000°N, 11.9500°E)
Time: 22:29:20
(UTC+00:00)

Nadezhda 4 Rocket - Pass Details

Date: 13 August 2020
Orbit: 949 x 993 km, 82.9° (Epoch: 22 September)

Event Time Altitude Azimuth Distance (km) Brightness Sun altitude
Rises 23:44:16 0° 347° (NNW) 3,699 8.0 -31.9°
Reaches altitude 10° 23:46:51 10° 344° (NNW) 2,740 7.1 -31.8°
Enters shadow 23:52:03 50° 298° (WNW) 1,220 4.5 -31.7°
